Saint Paul, MN

5:41 AM CST on December 07, 2016 (GMT -0600)
Saint Paul Downtown-Holman

Weather History for KSTP - February, 2015

Change the Weather History Date:

Friday, February 13, 2015

  Actual Average Record
Temperature  
Mean Temperature 18 °F -  
Max Temperature 30 °F 28 °F 46 °F (2011)
Min Temperature 6 °F 13 °F -6 °F (2016)
Degree Days  
Heating Degree Days 47    
Moisture  
Dew Point 11 °F    
Average Humidity 71    
Maximum Humidity 84    
Minimum Humidity 62    
Precipitation  
Precipitation 0.00 in - - ()
Sea Level Pressure  
Sea Level Pressure 30.09 in    
Wind  
Wind Speed 10 mph (WSW)    
Max Wind Speed 21 mph    
Max Gust Speed 29 mph    
Visibility 10 miles    
Events Snow    
Averages and records for this station are not official NWS values.
T = Trace of Precipitation, MM = Missing Value Source: NWS Daily Summary

Daily Weather History Graph

Daily Weather History Graph

Search for Another Location

Airport or City:

Trip Planner

Search our weather history database for the weather conditions in past years. The results will help you decide how hot, cold, wet, or windy it might be!

Date:

Astronomy

Feb. 13, 2015 Rise Set
Actual Time 7:16 AM CST 5:37 PM CST
Civil Twilight 6:45 AM CST 6:07 PM CST
Nautical Twilight 6:11 AM CST 6:42 PM CST
Astronomical Twilight 5:37 AM CST 7:16 PM CST
Moon 2:24 AM CST (2/13) 12:14 PM CST (2/13)
Length of Visible Light 11h 21m
Length of Day
10h 20m
Waning Crescent, 34% of the Moon is Illuminated
Feb 13
Waning Crescent
Feb 18
New
Feb 25
First Quarter
Mar 5
Full
Mar 13
Last Quarter

Hourly Weather History & Observations

Time (CST) Temp. Windchill Dew Point Humidity Pressure Visibility Wind Dir Wind Speed Gust Speed Precip Events Conditions
12:53 AM 6.1 °F -2.8 °F 1.0 °F 80% 30.30 in 10.0 mi ESE 4.6 mph - N/A   Overcast
1:53 AM 8.1 °F -2.0 °F 3.0 °F 80% 30.28 in 10.0 mi SE 5.8 mph - N/A   Overcast
2:53 AM 8.1 °F -4.3 °F 3.9 °F 83% 30.26 in 7.0 mi SSE 8.1 mph - 0.00 in Snow Light Snow
3:53 AM 10.0 °F -1.9 °F 5.0 °F 80% 30.23 in 10.0 mi SSE 8.1 mph - 0.00 in   Overcast
4:53 AM 10.0 °F 0.4 °F 6.1 °F 84% 30.21 in 10.0 mi SE 5.8 mph - N/A   Overcast
5:53 AM 12.0 °F 1.5 °F 7.0 °F 80% 30.18 in 10.0 mi SSE 6.9 mph - N/A   Overcast
6:53 AM 12.9 °F 3.8 °F 9.0 °F 84% 30.15 in 10.0 mi SE 5.8 mph - N/A   Overcast
7:53 AM 17.1 °F 10.0 °F 10.9 °F 77% 30.12 in 10.0 mi SSW 4.6 mph - N/A   Overcast
8:53 AM 19.0 °F 10.0 °F 12.0 °F 74% 30.12 in 10.0 mi West 6.9 mph - N/A   Overcast
9:53 AM 19.9 °F 7.3 °F 12.9 °F 74% 30.10 in 10.0 mi WSW 12.7 mph 18.4 mph N/A   Overcast
10:53 AM 23.0 °F 11.7 °F 15.1 °F 72% 30.08 in 10.0 mi WSW 11.5 mph - N/A   Overcast
11:53 AM 25.0 °F 14.2 °F 16.0 °F 69% 30.06 in 10.0 mi West 11.5 mph - N/A   Overcast
12:53 PM 28.0 °F 17.5 °F 18.0 °F 66% 30.02 in 10.0 mi WSW 12.7 mph - N/A   Overcast
1:53 PM 28.9 °F 18.2 °F 19.0 °F 67% 29.99 in 10.0 mi West 13.8 mph - N/A   Overcast
2:53 PM 28.4 °F 15.8 °F 19.4 °F 69% 29.96 in 10.0 mi WNW 18.4 mph - N/A   Mostly Cloudy
3:00 PM 30.0 °F 18.7 °F 19.9 °F 66% 29.96 in 10.0 mi WNW 16.1 mph - N/A   Scattered Clouds
3:35 PM 28.9 °F 17.3 °F 19.0 °F 67% 29.97 in 10.0 mi WNW 16.1 mph 28.8 mph N/A   Mostly Cloudy
3:53 PM 28.9 °F 18.2 °F 19.0 °F 67% 30.00 in 10.0 mi WNW 13.8 mph - N/A   Mostly Cloudy
4:24 PM 28.0 °F 14.6 °F 18.0 °F 66% 29.98 in 10.0 mi WNW 20.7 mph 25.3 mph N/A   Mostly Cloudy
4:53 PM 27.0 °F 14.3 °F 17.1 °F 66% 30.01 in 10.0 mi NW 17.3 mph - N/A   Partly Cloudy
5:53 PM 24.1 °F 12.0 °F 14.0 °F 65% 30.03 in 10.0 mi WNW 13.8 mph - N/A   Clear
6:53 PM 21.9 °F 8.2 °F 12.0 °F 66% 30.05 in 10.0 mi WNW 16.1 mph - N/A   Clear
7:53 PM 19.0 °F - 8.1 °F 62% 30.08 in 10.0 mi North - - N/A   Clear
8:53 PM 18.0 °F - 7.0 °F 62% 30.09 in 10.0 mi North - - N/A   Clear
9:53 PM 16.0 °F - 5.0 °F 62% 30.10 in 10.0 mi North - - N/A   Clear
10:53 PM 14.0 °F -2.5 °F 3.9 °F 64% 30.10 in 10.0 mi WNW 17.3 mph 23.0 mph N/A   Clear
11:53 PM 12.0 °F -6.0 °F 3.0 °F 67% 30.10 in 10.0 mi NW 19.6 mph - N/A   Clear